Theta_e
340 339 343 349 351 352 351 352 352 353 353 353 353 353 353 353 352 352 351 350 349 349 349 348 348 348 348 348 349 348 348 348 348 348 349 349 349 349 349 349 350 350 351 350 351 351 350 349 351 349 347 346 346 346 346 347 347 347 347 347 348 348 349 349 349 350 350 351 351 351 350 350 351 352 353 352 352 351 351 350 350 348 348 350 352
339 341 343 347 350 352 352 352 352 353 353 353 353 353 353 352 352 351 350 350 349 348 349 348 349 348 349 349 349 348 349 348 348 349 348 348 349 349 348 348 349 349 350 349 350 350 350 350 349 347 347 346 344 343 344 344 345 345 346 346 346 347 347 347 347 347 349 349 350 350 350 350 350 351 352 351 350 350 350 350 350 346 346 351 352
341 341 344 346 349 351 351 352 352 352 353 353 353 352 352 352 351 350 350 349 348 349 349 349 348 349 349 348 349 348 348 348 349 348 348 348 348 347 348 348 349 349 349 348 350 349 349 348 346 346 345 344 343 342 342 342 342 343 343 344 344 345 345 345 345 345 345 348 348 347 347 349 349 350 351 351 350 349 349 350 350 350 348 351 351
339 340 344 346 346 348 350 351 352 352 353 353 352 353 351 350 350 350 349 349 349 349 349 349 349 349 349 349 349 348 348 348 348 348 348 348 348 347 348 348 348 348 347 349 347 349 348 348 346 345 344 342 341 340 340 340 340 340 341 341 342 342 343 343 343 343 343 344 344 344 342 341 345 348 350 351 350 349 348 349 349 348 351 351 351
339 340 343 345 346 347 350 351 352 353 352 352 352 352 351 350 349 349 349 349 349 349 349 349 349 349 349 348 349 348 348 348 348 348 348 348 348 348 348 348 347 347 347 347 348 349 348 347 345 344 342 341 340 339 339 338 338 338 338 339 338 338 340 340 341 341 341 341 340 340 337 342 343 347 348 349 349 349 349 348 348 348 348 348 350
339 340 343 345 345 346 348 350 352 353 352 353 352 351 350 350 349 349 349 349 349 350 349 349 349 349 349 349 349 348 348 348 348 348 348 348 348 348 348 347 347 347 347 348 347 347 347 345 344 342 341 339 338 338 337 337 335 335 335 336 336 337 337 338 339 339 340 338 336 334 338 341 343 345 348 347 347 347 347 347 347 347 347 347 348
340 340 343 344 345 344 346 350 352 352 352 352 351 351 351 350 349 349 349 349 349 349 349 348 349 349 349 349 349 349 348 348 348 348 348 347 348 348 347 347 347 347 347 346 347 346 346 344 343 342 340 338 337 336 336 335 334 332 332 332 333 334 336 336 337 339 337 333 332 335 340 341 341 342 348 348 347 347 347 347 346 347 346 346 346
340 341 343 343 344 344 345 350 351 352 352 352 352 351 351 350 349 349 349 348 349 349 348 348 349 349 349 349 348 348 348 348 348 347 347 347 347 347 346 347 346 347 346 346 346 345 344 343 342 340 338 337 336 335 333 332 332 331 330 329 330 332 333 335 335 337 335 328 330 335 339 341 341 342 347 347 347 348 347 346 347 346 346 346 346
340 341 342 343 343 342 344 347 351 352 351 352 352 351 350 350 350 349 349 348 348 349 348 348 349 349 349 349 349 348 348 348 348 347 346 346 346 346 347 346 346 346 345 345 345 344 342 341 340 339 337 335 333 333 331 330 329 329 328 328 328 330 332 331 335 333 329 329 331 336 340 341 341 340 346 347 347 345 345 346 346 346 346 344 345
340 340 341 342 343 341 344 346 351 351 351 352 351 351 350 350 350 349 349 348 348 349 348 349 349 349 349 349 348 348 348 349 348 346 346 346 346 346 346 345 345 344 344 343 343 343 341 340 338 337 335 333 332 330 329 328 327 326 325 325 326 328 330 332 333 329 328 329 332 337 339 343 339 340 344 346 345 345 344 344 344 342 343 344 344
339 339 340 341 341 341 345 349 350 350 351 351 351 351 351 351 350 349 349 348 348 348 348 348 348 349 349 348 349 348 348 348 347 346 346 345 346 346 344 344 343 342 342 341 341 340 339 338 337 336 334 331 329 328 327 326 325 324 323 323 325 328 329 332 329 324 326 328 329 335 342 343 337 337 344 344 344 343 342 342 343 342 342 343 343
336 338 339 339 339 340 344 347 348 350 350 351 351 351 351 350 350 349 349 348 348 348 348 348 348 349 348 348 349 348 348 347 346 346 345 344 344 343 342 341 341 340 339 338 338 338 337 336 336 334 331 329 327 327 325 324 323 323 321 323 325 327 328 329 323 322 324 326 328 329 329 333 335 339 343 342 342 341 341 341 341 342 342 341 341
333 337 339 338 340 340 343 346 347 349 350 351 351 351 351 351 350 349 349 349 349 349 348 349 350 349 348 348 348 348 348 347 346 345 344 343 342 342 341 340 339 338 337 337 336 336 336 334 334 332 329 327 325 326 325 323 323 321 322 322 325 326 327 327 320 320 321 323 325 326 327 327 332 341 341 341 340 339 340 339 340 340 340 340 340
332 333 337 339 339 337 340 342 345 347 349 350 351 351 351 351 350 350 349 349 349 349 349 348 349 348 348 348 348 347 347 346 345 343 342 342 341 341 341 340 339 338 337 335 335 334 333 332 331 330 327 325 324 323 323 322 321 320 321 322 324 324 326 320 324 317 319 321 323 324 324 327 331 340 340 339 338 338 337 337 337 337 337 337 337
331 333 337 338 337 339 336 340 342 344 346 348 349 350 351 350 350 350 349 349 349 350 349 349 349 348 349 348 348 347 347 345 344 343 342 341 341 340 340 339 339 338 336 334 334 334 331 330 330 329 327 324 324 323 322 321 320 319 319 321 322 323 323 313 315 315 319 321 321 323 322 325 338 336 336 336 336 335 335 335 335 334 334 335 335
331 334 336 336 337 338 338 338 338 339 342 345 346 347 348 349 349 349 349 349 349 349 349 349 349 349 349 349 347 347 347 345 343 342 341 341 339 338 337 337 338 337 335 333 333 331 330 329 330 328 325 324 322 322 321 320 319 319 319 320 320 322 320 317 313 315 316 319 320 321 321 324 335 334 334 333 334 333 333 332 333 333 333 334 334
331 335 336 335 336 337 338 338 339 335 336 338 341 342 345 347 347 348 348 348 348 349 349 349 349 348 348 348 347 346 345 345 344 342 341 340 339 338 336 336 336 334 332 331 331 330 329 329 329 326 324 324 323 322 320 319 318 317 317 318 318 320 319 316 313 312 314 319 320 320 321 324 333 333 333 332 332 332 331 331 331 331 331 331 331
330 334 335 336 336 336 337 338 338 338 340 336 335 339 342 345 345 345 345 345 346 347 347 347 347 346 345 345 343 343 343 344 343 343 342 340 339 337 336 334 333 332 332 331 331 330 328 330 328 325 324 323 322 321 319 316 315 315 315 315 315 317 318 316 309 312 316 319 317 319 320 331 331 331 331 331 330 330 330 330 330 330 329 329 329
326 331 334 335 336 336 337 337 337 338 339 339 340 338 336 340 342 342 342 343 343 344 344 343 342 343 343 341 339 338 336 337 338 339 340 338 332 331 335 334 332 332 331 331 330 329 328 329 327 325 324 323 321 319 317 316 314 313 313 314 314 313 312 308 306 311 315 315 316 317 321 330 329 330 330 329 329 328 328 329 329 327 326 326 326
324 327 329 333 336 336 336 337 337 338 338 338 339 339 334 333 337 339 339 340 340 341 340 338 336 336 336 336 332 332 329 332 329 333 332 333 330 326 331 333 333 332 331 330 330 329 328 328 326 325 323 321 319 317 315 314 312 311 312 313 312 309 301 301 305 310 312 314 316 317 326 328 328 329 329 328 327 326 327 327 328 325 324 324 325
325 326 327 328 332 335 335 336 337 337 338 338 339 339 338 330 332 332 334 336 337 337 337 332 328 328 329 327 325 332 330 330 329 327 323 324 322 323 328 332 334 334 333 332 329 329 328 327 326 324 322 320 316 315 313 312 311 310 311 310 308 299 299 301 305 309 310 310 313 318 327 326 327 328 326 326 325 326 326 324 326 327 327 327 327
323 324 326 328 328 332 334 335 336 336 338 340 341 341 340 333 337 336 335 334 332 330 333 336 329 333 325 328 330 327 327 325 324 323 321 321 321 321 325 331 333 332 332 331 329 328 328 326 325 324 322 318 313 300 302 310 310 310 311 309 298 297 298 300 305 307 307 308 311 321 327 326 326 325 325 325 326 326 326 325 325 326 327 326 326
320 322 325 327 328 328 331 334 335 336 337 339 340 339 339 336 337 336 335 330 332 332 334 333 332 331 328 327 325 325 324 323 322 321 321 319 320 321 325 328 330 328 330 331 330 328 327 326 325 324 320 315 303 297 295 293 294 304 303 298 296 297 297 300 302 305 306 307 307 323 326 326 325 324 323 325 324 326 326 325 325 325 325 326 325
321 323 325 327 327 328 328 332 334 335 336 337 337 337 338 336 336 336 334 333 332 332 333 332 331 329 327 325 324 324 323 322 321 319 320 319 319 319 323 324 326 324 325 326 328 328 327 326 324 323 317 306 298 297 295 293 292 292 294 297 297 296 297 297 301 303 305 308 308 320 324 327 325 324 323 324 325 324 324 325 325 325 325 324 323
320 322 322 326 326 328 328 328 331 334 335 335 334 334 335 335 335 335 335 333 331 330 330 330 329 327 325 324 323 323 323 322 321 320 319 318 316 318 320 320 320 317 320 315 316 318 319 315 315 311 303 303 299 297 295 293 295 293 294 296 296 295 296 297 298 301 302 302 308 318 320 325 326 324 324 324 324 324 324 324 324 324 323 323 323
316 319 322 324 326 328 329 329 328 331 334 334 334 332 332 334 334 335 335 333 332 330 328 328 327 326 325 324 323 322 322 321 320 319 318 317 317 316 317 316 315 316 316 314 312 313 311 310 308 305 302 300 299 298 297 295 293 294 295 295 295 295 295 295 297 300 300 300 306 317 318 321 325 326 324 324 324 323 324 324 323 323 322 322 322
315 319 322 323 326 327 328 329 328 327 331 333 333 329 329 333 334 333 333 332 332 330 328 327 326 325 324 323 322 322 321 320 319 318 318 317 317 316 316 315 315 314 314 314 313 312 310 308 305 304 300 298 296 296 297 296 295 295 295 295 295 294 294 294 296 299 298 300 308 315 317 319 323 324 323 324 323 323 322 322 322 322 322 322 322
315 318 321 323 323 326 328 328 329 327 328 330 331 330 329 329 331 330 332 331 330 330 329 328 326 325 324 323 322 322 321 319 318 318 317 316 316 316 316 315 314 314 313 314 313 310 309 307 305 301 300 296 296 296 296 296 295 296 295 294 294 294 294 294 294 297 299 298 301 310 315 318 321 322 323 324 324 323 323 322 321 322 322 322 321
313 316 320 322 323 325 327 328 328 328 328 328 329 329 329 327 328 329 331 327 330 331 330 328 326 325 324 323 322 322 320 319 318 318 316 316 315 316 315 315 314 314 312 311 312 311 308 305 303 303 300 296 296 295 295 295 295 295 295 294 294 293 294 294 293 294 298 299 299 305 314 317 320 321 322 323 323 323 323 323 322 322 321 321 321
309 315 318 321 323 325 326 327 328 328 328 327 328 327 327 327 326 328 330 326 328 329 328 328 328 325 324 323 322 322 321 319 318 317 316 315 315 315 315 314 314 313 312 311 310 311 308 302 300 299 297 296 296 296 295 295 294 295 294 295 294 295 294 293 293 294 298 298 298 301 312 315 319 322 322 322 322 323 323 322 321 321 320 320 321
306 310 316 319 321 323 325 326 328 326 327 327 327 327 325 327 325 325 326 327 327 325 326 327 326 326 324 323 322 321 320 319 318 317 316 315 314 314 314 313 313 312 313 311 308 309 307 302 299 297 296 296 295 295 293 294 294 295 295 294 294 294 294 293 293 293 296 299 299 299 303 312 316 319 322 322 323 323 322 323 322 322 321 321 321
306 306 313 317 318 323 324 325 326 326 325 326 325 326 325 325 325 324 323 324 324 323 323 324 324 325 323 323 322 320 319 318 318 316 316 314 313 314 313 313 312 311 312 312 307 306 304 299 297 296 295 295 295 294 293 293 293 295 293 292 292 294 293 293 293 293 295 299 299 298 298 303 312 315 318 322 322 322 323 322 321 321 320 321 321
307 307 307 311 316 321 323 324 325 324 325 326 326 326 324 322 323 323 323 322 323 323 322 322 323 323 322 322 321 320 318 318 317 317 315 314 312 313 312 312 312 311 310 310 306 302 299 296 296 296 294 293 294 293 294 292 293 293 293 292 292 292 292 292 293 294 295 298 299 299 299 298 300 309 313 316 319 321 322 322 321 319 319 320 321
305 306 307 309 315 317 321 322 322 323 323 325 324 322 322 319 318 321 321 322 320 321 320 320 321 321 321 321 320 319 318 317 316 315 315 313 312 312 312 311 311 309 309 306 304 299 297 296 295 294 296 294 293 293 292 291 291 291 291 291 291 291 292 292 292 293 294 293 295 298 299 298 297 298 300 310 313 318 320 321 321 322 322 321 320
301 303 307 307 311 313 318 321 318 319 319 321 321 321 319 319 317 318 321 319 320 321 318 319 317 319 319 319 319 318 317 316 315 315 314 313 312 311 311 311 309 307 306 302 302 297 296 295 294 294 293 291 292 293 292 292 291 292 291 291 291 291 290 292 292 293 293 293 292 297 299 298 297 297 298 296 303 309 316 318 320 321 322 321 319
301 302 305 307 309 311 312 313 313 315 316 317 316 318 318 316 316 316 319 316 317 320 317 318 318 315 316 318 317 317 317 315 314 314 313 312 312 311 310 308 306 305 304 299 299 297 295 295 295 294 292 291 292 291 290 291 290 291 290 289 290 291 290 291 293 292 292 291 292 293 295 297 297 296 298 295 297 301 310 314 316 318 319 320 319
302 302 303 306 309 310 311 312 312 313 315 314 313 313 316 315 315 316 315 315 317 315 315 315 316 316 314 315 315 316 316 314 313 313 313 311 309 310 308 307 304 303 301 298 297 296 295 296 294 293 293 291 291 290 289 291 290 290 289 289 289 290 290 292 292 292 293 291 292 292 291 291 296 301 294 294 294 295 304 309 311 312 313 317 319
301 302 302 303 307 308 309 310 310 312 312 313 313 313 314 315 313 313 313 314 313 313 313 314 314 313 314 313 314 315 315 313 311 311 310 310 309 309 307 306 303 301 300 297 296 294 294 295 293 291 292 291 290 290 289 289 291 290 289 289 289 288 289 290 291 293 291 291 291 291 290 290 291 291 294 293 293 293 296 303 307 307 307 311 315
301 301 302 302 303 305 306 306 308 311 312 313 312 314 314 314 313 313 313 313 314 312 312 312 311 313 312 311 313 314 314 312 310 309 310 308 307 306 307 304 303 300 299 297 295 293 293 293 294 291 290 290 291 289 290 291 291 291 290 290 288 289 289 289 291 291 290 291 291 293 291 290 290 290 291 292 292 292 292 293 291 291 294 306 311
300 300 301 301 302 302 303 304 304 308 311 311 311 311 311 310 311 311 312 310 312 310 311 310 311 311 309 309 310 311 310 312 309 308 309 307 305 304 305 303 302 300 299 297 295 293 293 292 292 292 290 289 289 289 290 290 288 288 289 289 289 289 290 290 289 290 292 291 293 293 292 290 290 289 289 290 291 291 291 291 292 291 292 299 304
298 298 299 299 300 301 301 301 302 304 308 309 308 306 307 306 306 307 306 307 309 309 310 308 310 308 307 308 308 309 308 308 308 307 307 306 306 303 303 302 301 300 299 299 297 295 294 293 291 290 290 289 288 288 290 290 289 287 286 287 287 288 290 289 288 289 289 290 291 291 290 290 290 290 290 289 289 290 290 290 290 290 290 289 294
296 297 297 298 299 300 300 300 301 301 301 303 305 305 304 304 306 305 305 305 306 306 307 307 306 307 305 305 306 306 307 308 307 305 305 305 304 301 301 302 300 300 299 298 296 295 293 292 291 289 289 290 289 289 291 290 286 286 285 285 285 285 287 288 288 288 289 289 290 291 290 290 289 289 289 289 289 289 289 289 289 289 289 289 288
295 295 296 297 297 298 298 299 299 300 300 300 303 303 303 304 303 301 303 303 303 304 304 304 304 306 305 304 305 304 305 306 305 304 306 304 304 302 300 300 300 299 297 296 295 294 292 292 291 291 288 287 288 289 290 292 286 284 284 284 282 283 285 286 286 287 289 289 289 290 290 289 289 289 289 288 288 288 289 288 288 288 288 287 287
294 294 295 295 296 296 297 297 298 299 299 299 299 300 301 300 301 302 302 303 303 301 302 303 302 303 303 301 301 302 304 304 303 303 303 303 302 302 299 298 299 298 299 297 294 294 292 291 291 291 290 288 288 289 290 290 286 287 283 285 281 282 280 283 286 285 287 288 289 289 289 290 288 288 287 288 288 288 288 288 288 288 288 287 288
293 293 293 294 295 295 296 296 297 297 298 299 299 299 301 301 300 300 298 296 297 298 298 298 299 299 300 301 303 300 301 302 301 302 302 301 301 301 299 297 297 297 297 297 295 295 293 293 292 291 290 290 288 287 289 289 288 291 288 281 281 282 282 280 283 282 284 286 288 288 289 289 288 288 288 287 287 288 288 287 288 287 288 288 287
292 293 293 293 293 294 295 295 296 297 297 298 298 298 298 298 297 297 296 295 295 295 295 295 297 300 301 298 300 300 299 300 299 300 300 300 299 299 299 296 296 297 297 296 296 293 293 292 291 292 290 290 290 287 288 290 288 288 288 286 286 284 281 281 283 282 282 284 285 287 287 288 288 288 287 287 287 287 288 288 288 288 288 288 288
292 292 293 293 293 293 293 294 294 295 296 296 297 298 297 297 297 296 296 295 294 295 295 296 296 296 297 299 299 299 299 300 298 298 298 298 298 298 297 296 295 295 296 296 295 295 294 293 292 291 291 291 288 288 288 289 288 288 288 288 287 285 284 285 283 280 281 283 283 285 286 286 287 287 287 287 287 287 287 287 288 288 288 288 287
291 292 292 292 292 292 292 293 293 294 294 295 295 296 296 296 295 295 295 295 295 294 296 296 296 295 297 297 297 297 298 298 298 297 297 296 296 296 296 296 295 294 295 295 295 295 295 294 293 292 291 290 289 289 288 287 288 289 289 288 286 286 285 286 283 287 282 280 282 283 283 285 285 287 288 287 286 287 286 286 287 287 287 287 287
290 290 291 291 291 292 292 292 292 293 293 293 294 294 294 294 294 294 294 294 294 295 295 295 295 295 294 294 294 296 296 296 297 297 295 296 295 295 294 294 294 294 292 294 293 294 294 294 293 292 291 290 289 288 287 288 288 288 286 287 286 286 286 286 285 284 283 283 281 281 283 284 284 285 287 288 287 287 287 287 287 287 287 288 287
289 290 290 290 290 290 290 291 291 292 292 292 292 292 293 293 292 292 292 292 293 294 294 294 294 293 293 294 294 293 294 294 295 295 295 294 294 294 293 293 293 293 292 291 291 291 291 291 293 293 293 292 291 289 288 287 288 289 288 288 287 285 286 288 286 284 284 282 285 281 282 283 283 285 287 286 287 287 286 287 287 287 287 287 287
289 289 289 289 289 289 289 289 289 291 291 291 291 291 291 291 291 291 291 291 292 292 291 292 292 292 292 292 292 292 293 293 293 294 293 293 293 293 292 292 292 292 292 291 291 291 291 290 291 291 291 292 292 290 289 288 287 287 287 286 287 287 287 287 287 286 287 286 284 281 280 283 285 284 283 287 287 286 286 286 286 286 287 287 287
Wind_Speed
7 11 9 14 17 18 19 18 17 17 16 16 15 15 14 14 13 13 12 12 11 11 11 10 11 11 11 10 10 10 10 10 9 9 8 8 8 7 6 7 7 7 8 8 11 11 12 13 14 13 12 12 12 12 12 12 12 12 11 11 11 10 10 11 11 10 9 10 11 12 11 11 11 12 13 14 15 13 11 10 10 7 6 9 12
11 11 10 10 17 18 18 18 18 17 16 15 15 15 15 14 14 13 12 11 12 11 11 11 12 12 11 11 11 10 10 10 9 9 8 8 7 6 6 7 6 7 8 9 11 11 12 13 13 12 12 12 12 11 11 11 11 10 10 10 10 10 9 10 10 9 9 8 9 9 10 11 11 11 12 13 14 13 11 10 10 4 4 11 12
10 12 10 12 16 17 17 18 18 18 17 16 15 15 14 12 13 13 12 12 12 12 12 13 13 12 12 12 11 11 10 10 9 9 8 8 7 6 6 6 6 7 7 10 11 11 12 13 12 12 13 12 11 11 11 10 10 10 10 9 9 8 8 8 8 8 8 7 9 9 8 9 11 11 12 13 14 13 11 10 9 9 7 12 11
11 10 10 12 16 16 16 17 17 17 16 15 15 14 13 13 13 13 12 12 12 13 13 13 13 12 12 12 11 11 10 9 9 9 9 8 7 6 6 6 6 6 9 10 10 12 11 13 12 12 13 12 11 10 10 10 10 9 9 9 8 8 7 6 6 7 7 6 5 5 3 3 6 10 11 12 13 13 11 11 11 12 13 12 14
10 10 10 10 11 15 16 16 16 16 17 16 15 15 15 14 13 14 13 13 13 13 13 13 12 12 11 11 11 10 10 9 9 9 9 8 7 6 7 7 7 9 11 9 11 12 12 12 12 12 12 11 10 9 9 9 9 9 8 8 7 7 7 7 6 5 4 3 5 1 1 1 4 8 10 11 12 11 9 11 12 12 11 12 13
9 9 10 10 10 13 16 17 16 16 17 15 16 15 15 15 15 15 14 14 14 14 13 12 12 11 11 11 11 10 10 9 9 9 8 8 7 7 7 7 9 11 11 10 11 11 13 12 12 11 11 10 9 9 8 8 8 8 7 7 7 7 6 7 8 7 5 6 4 1 3 0 3 5 9 10 11 11 11 12 12 12 11 12 12
10 8 9 9 8 11 16 17 18 17 17 16 16 16 15 15 15 15 15 15 15 15 14 13 12 12 12 11 11 10 10 10 10 9 9 8 8 8 8 8 10 10 10 10 10 12 12 11 11 10 10 9 8 8 7 7 7 7 6 6 6 6 6 7 8 7 7 4 4 4 3 1 3 3 9 9 10 12 13 13 12 12 12 11 11
8 8 9 8 7 11 16 17 17 18 18 16 16 16 16 15 15 15 15 15 15 14 14 13 12 12 12 11 11 11 11 10 10 10 10 9 9 9 8 9 10 10 10 10 11 12 11 11 11 10 8 8 7 7 7 7 7 6 6 6 6 6 7 8 8 8 8 3 3 5 4 3 4 3 9 10 11 12 12 13 12 13 12 11 8
8 9 9 9 7 13 15 15 17 17 19 18 17 16 16 16 15 15 15 14 14 14 13 13 13 12 11 11 11 10 11 12 11 12 11 10 10 10 11 10 9 10 10 9 10 11 10 9 9 7 7 7 7 7 6 6 6 6 6 6 6 6 7 7 7 7 5 4 5 5 5 5 4 4 9 12 13 13 12 10 10 12 12 10 8
8 9 9 8 8 13 14 14 16 17 19 18 16 16 17 16 15 15 15 14 13 13 13 13 13 12 12 11 11 11 12 13 13 12 12 11 11 11 11 10 9 9 9 9 9 10 10 8 8 6 6 6 7 6 6 6 6 6 6 6 6 6 7 7 6 5 3 5 5 5 4 5 3 4 9 12 12 12 11 8 7 8 8 10 10
10 9 8 8 9 13 14 15 15 15 17 17 16 17 17 17 16 16 15 14 14 14 13 13 13 12 11 11 11 11 13 13 13 13 13 13 13 13 11 10 9 7 6 7 7 7 7 6 6 6 6 6 6 5 5 5 5 6 6 6 7 7 8 7 4 3 4 6 4 4 6 7 5 4 10 11 12 12 10 8 7 9 9 10 9
9 8 8 7 11 14 14 14 14 15 15 15 16 16 17 17 17 16 16 14 14 14 14 13 12 11 11 11 11 12 14 14 14 14 13 12 11 11 11 9 9 8 7 4 4 5 5 5 6 6 5 5 5 5 5 5 5 6 6 7 7 7 7 7 5 5 5 6 5 4 3 3 3 5 10 10 10 10 10 10 9 9 9 8 9
8 9 8 7 10 14 14 14 14 14 14 14 16 17 16 17 17 16 15 14 14 14 14 12 10 10 11 11 12 13 14 14 14 13 12 13 12 11 11 10 8 6 6 5 3 3 4 2 3 4 4 4 4 5 5 5 5 5 6 6 7 8 7 7 4 5 5 5 4 4 4 3 2 9 9 9 9 8 8 8 8 8 8 8 8
7 7 7 8 9 15 16 14 13 14 14 14 14 14 14 15 16 14 16 14 13 13 13 13 11 10 11 11 12 14 14 14 14 13 12 11 11 11 10 9 8 6 6 4 3 2 2 3 3 4 3 4 4 4 4 5 5 5 6 7 8 8 8 5 5 4 5 4 4 5 4 3 3 8 9 7 7 7 7 6 6 6 6 7 7
7 6 7 7 9 11 17 16 14 14 13 14 14 14 14 14 15 14 14 13 13 12 12 11 11 11 9 11 13 14 13 14 14 14 12 11 10 9 9 8 7 7 7 5 3 4 3 3 4 5 4 4 4 4 5 5 5 6 6 7 8 8 8 4 3 4 5 4 4 4 5 4 5 6 6 6 6 5 5 5 4 3 4 4 6
7 6 7 7 8 9 11 14 16 14 13 13 13 13 14 13 13 13 13 13 12 12 11 11 10 10 11 11 15 15 14 15 14 13 12 11 9 8 7 7 7 7 7 6 7 6 4 4 6 7 5 4 4 4 5 5 6 6 7 7 7 8 8 4 4 4 5 5 4 4 4 4 5 5 5 5 5 5 4 4 3 3 4 5 5
6 8 8 7 8 8 9 9 11 15 13 13 13 13 13 13 13 13 12 12 12 11 10 10 9 10 11 11 13 14 12 15 14 14 12 11 10 9 8 8 7 7 5 6 6 6 6 6 9 7 6 4 4 4 5 6 6 6 7 7 8 8 8 5 5 5 5 4 4 4 4 4 5 7 6 5 5 5 4 3 4 3 4 4 4
6 8 8 8 8 8 8 8 9 10 9 10 12 14 13 13 14 13 12 11 11 10 10 10 9 10 11 11 12 12 12 12 11 12 12 11 10 9 8 8 7 7 7 7 7 7 6 8 9 7 6 5 5 5 5 6 6 6 6 8 8 8 7 7 5 5 5 4 5 3 5 4 7 6 6 6 6 5 4 4 3 4 3 3 3
5 7 7 8 9 8 8 8 8 8 9 8 7 11 14 13 14 13 12 11 10 10 10 9 10 10 11 11 10 12 11 12 12 11 11 10 9 10 9 9 8 8 8 8 7 8 8 10 8 7 7 7 6 5 6 6 6 6 7 7 7 6 7 6 4 5 5 5 4 5 5 5 6 5 5 5 4 4 4 4 4 3 2 3 2
3 5 7 7 8 9 8 8 8 8 8 7 8 8 11 13 13 13 13 12 11 10 10 9 10 10 10 11 9 9 9 9 13 9 9 11 11 8 9 6 8 9 9 8 8 9 9 10 7 8 8 7 6 6 5 6 6 6 6 6 6 6 5 4 5 5 5 5 4 4 5 4 4 5 5 4 4 4 4 4 4 4 4 3 3
2 4 6 7 7 9 10 8 9 9 8 8 7 8 9 12 11 13 13 13 11 11 11 11 10 10 9 9 8 6 5 5 7 5 9 7 10 10 9 8 6 5 7 7 8 9 9 9 8 8 9 8 7 6 4 5 6 6 6 6 5 4 4 5 5 4 4 3 4 4 6 4 4 5 4 4 4 5 4 4 4 4 5 6 6
6 6 5 6 7 8 10 10 8 10 9 8 7 7 7 9 8 7 8 9 10 11 10 8 8 6 9 7 6 6 5 5 5 6 5 6 8 11 10 9 8 6 6 8 9 9 9 9 9 9 9 9 7 3 2 3 4 5 5 5 3 3 4 5 5 5 3 3 3 4 7 4 3 4 4 4 5 5 5 5 4 4 5 5 5
6 6 7 7 8 7 8 10 10 10 10 9 8 7 8 7 7 7 7 8 8 9 8 8 7 7 6 6 6 6 6 5 6 6 6 9 8 11 11 10 9 8 5 7 8 10 10 10 10 9 10 9 4 3 2 2 2 3 4 3 2 3 4 4 4 5 3 2 3 5 7 5 3 3 4 5 4 4 4 4 5 5 5 5 4
9 9 9 7 6 7 9 10 10 11 11 9 8 7 7 7 7 7 6 6 7 7 7 7 7 7 7 6 6 6 6 6 7 11 9 6 7 10 11 11 10 9 9 6 8 9 10 10 10 10 7 4 3 3 3 3 2 1 1 1 1 3 4 4 4 4 4 3 2 6 6 6 2 2 4 3 6 4 4 4 5 5 5 4 4
10 8 5 8 8 8 7 8 9 10 11 9 9 8 8 8 7 7 7 6 6 6 7 7 7 7 7 7 6 6 6 6 6 6 6 6 5 5 6 6 6 5 8 4 5 5 7 4 4 7 4 5 3 2 3 3 1 1 1 2 2 3 4 4 4 4 4 3 2 6 6 7 5 1 3 3 5 4 4 5 5 5 4 3 3
4 6 10 8 9 9 9 8 8 10 11 10 10 8 9 9 9 8 8 7 7 7 6 6 7 7 7 7 7 7 7 7 6 6 6 6 6 6 6 6 5 5 5 6 6 6 5 5 6 6 4 4 4 4 3 4 3 2 2 3 3 3 3 4 4 5 3 3 2 5 5 5 3 3 2 4 5 4 5 4 4 3 3 3 3
7 9 9 9 10 10 10 9 9 9 11 10 9 8 8 9 9 8 9 8 7 7 7 7 7 7 7 7 8 7 7 7 7 7 7 6 7 6 6 6 6 6 6 7 6 6 6 6 6 5 4 4 2 4 4 3 3 4 4 4 3 4 3 4 4 4 3 3 3 4 4 4 4 4 1 4 5 4 2 3 4 4 4 4 3
6 9 9 10 9 13 12 10 10 9 9 10 10 9 8 9 9 9 9 9 9 8 8 7 7 7 7 7 7 7 7 6 7 7 7 6 7 6 6 6 6 6 5 6 7 5 6 6 5 4 4 4 3 4 4 4 5 4 5 4 4 4 4 4 4 4 4 3 2 3 3 3 3 4 1 4 5 5 6 3 3 5 6 5 4
7 9 9 9 11 12 11 12 11 11 9 9 10 9 9 8 9 9 10 9 9 9 8 7 7 7 7 7 7 7 6 7 7 7 6 7 6 7 6 6 6 6 6 6 7 6 6 6 6 5 5 4 4 4 4 4 5 4 5 4 4 4 4 4 4 4 4 3 2 2 3 3 3 3 1 2 5 6 7 8 7 6 4 5 5
11 10 8 10 9 9 11 13 12 12 10 8 8 8 9 9 9 10 10 9 9 9 8 8 8 7 7 7 8 7 7 7 6 6 8 7 6 6 7 7 7 6 6 7 6 7 7 6 5 5 5 5 5 6 4 4 4 4 4 5 4 5 4 4 4 5 4 3 3 2 4 3 4 4 4 2 2 7 7 6 5 4 4 5 5
8 7 8 9 8 9 10 11 10 9 8 9 8 8 7 8 8 7 8 9 9 8 8 8 7 7 7 8 7 7 7 7 7 7 6 7 6 7 7 6 6 7 7 6 6 7 6 7 7 6 6 6 6 4 6 5 5 4 4 4 5 4 4 3 3 4 4 4 3 2 2 4 4 5 6 5 6 4 1 6 7 7 7 6 7
6 8 8 6 6 10 11 10 10 9 8 8 7 7 7 7 6 6 6 7 7 7 8 8 8 8 8 8 7 7 7 7 8 7 7 7 7 7 6 7 7 6 7 6 6 6 6 6 6 6 5 5 5 5 4 6 5 5 4 4 4 5 4 4 4 4 4 4 4 3 3 3 5 5 6 6 6 6 7 4 6 8 5 6 7
4 2 1 3 6 8 8 9 9 7 8 8 7 6 4 4 5 6 5 5 6 6 7 7 8 8 8 8 8 8 7 8 7 8 7 7 7 7 6 7 6 6 6 6 6 5 5 6 6 5 5 4 5 4 3 4 5 4 4 4 4 4 4 4 4 4 4 4 5 4 3 3 3 5 6 6 6 6 6 6 5 4 3 6 7
6 4 2 4 5 3 4 5 6 7 8 6 5 5 4 4 3 4 4 5 6 6 6 6 7 7 7 7 7 7 7 6 8 7 7 7 7 7 7 7 6 6 6 6 7 6 6 6 6 6 6 6 6 6 6 5 4 3 4 3 3 4 5 4 4 4 3 4 3 4 3 3 3 3 3 6 6 6 6 6 6 6 5 4 4
10 10 4 2 1 1 3 4 4 5 5 5 6 5 4 4 4 4 4 4 5 5 5 5 5 7 6 6 6 7 6 6 6 8 7 7 7 7 7 7 6 6 7 6 7 6 7 7 7 7 5 5 6 6 6 6 5 5 4 3 4 3 3 4 3 3 3 2 3 4 4 3 2 2 2 3 5 6 7 6 6 6 6 6 3
14 11 9 4 5 4 3 4 3 4 4 4 4 4 4 4 4 4 4 3 4 4 4 4 4 4 5 6 5 6 6 6 6 7 7 7 7 7 7 6 6 6 7 6 6 8 7 6 6 7 7 6 6 5 4 6 5 5 4 3 4 3 3 3 4 4 3 2 2 3 3 2 3 3 3 3 3 4 6 6 6 7 7 7 5
13 14 13 9 8 8 6 4 4 4 4 4 4 4 4 4 4 4 3 3 4 4 3 4 4 4 4 6 5 6 6 6 6 6 7 7 6 7 6 6 6 7 7 6 7 7 7 7 6 6 7 7 7 6 4 6 5 4 3 3 4 3 4 4 4 4 2 3 2 2 3 3 3 4 3 3 2 2 4 5 6 6 6 6 6
13 14 13 11 8 7 7 7 6 5 3 4 4 4 4 5 5 5 4 4 3 3 3 4 3 4 4 5 5 5 5 5 5 5 6 6 6 7 5 6 6 6 6 6 6 5 6 7 7 5 6 6 7 8 7 5 5 5 4 4 4 3 5 5 4 3 4 4 3 3 4 4 4 4 4 4 4 3 2 3 4 4 4 4 3
12 13 14 13 12 9 9 10 8 7 6 5 5 5 6 6 6 6 6 5 4 4 3 4 3 3 4 3 4 5 5 5 5 5 6 6 6 6 6 6 6 7 7 6 5 5 5 6 8 7 4 6 8 7 8 7 6 5 5 5 4 4 4 4 4 5 5 5 4 4 3 5 4 4 5 4 4 4 4 2 2 1 0 3 2
12 12 14 15 14 12 10 11 9 6 5 6 6 6 6 6 6 5 7 5 4 5 5 4 4 4 3 4 4 4 4 4 4 4 5 6 6 6 6 6 6 7 7 7 7 7 9 7 7 9 7 4 3 5 5 6 4 3 2 1 1 1 2 2 4 5 6 5 6 5 7 5 5 4 5 5 5 4 4 4 3 3 1 1 2
13 13 15 15 14 12 12 12 10 10 7 6 6 5 5 3 4 5 4 3 4 4 5 3 4 4 4 4 4 4 4 4 4 4 5 6 6 5 6 5 6 7 8 9 9 9 8 7 6 4 7 6 4 3 5 7 7 2 1 0 2 1 1 1 4 4 4 6 6 6 5 6 6 6 6 6 6 6 6 6 5 5 4 3 3
13 13 13 12 12 13 12 11 10 10 9 7 6 6 4 2 4 2 3 4 3 3 2 2 3 3 3 3 3 3 4 4 4 4 4 5 5 5 5 6 6 7 7 6 6 6 6 5 5 5 4 9 7 7 7 9 2 7 4 2 2 3 3 3 4 5 5 3 4 5 5 6 6 6 5 6 6 7 6 7 6 6 6 6 5
11 12 11 13 13 11 10 9 9 9 9 9 7 5 5 6 5 3 4 4 4 3 4 2 3 4 4 2 2 3 3 3 3 3 4 4 5 5 6 6 6 6 6 5 5 7 7 8 8 9 6 4 4 6 10 11 8 5 4 3 3 2 3 3 5 6 6 5 4 6 6 5 6 5 5 4 5 5 5 5 5 5 5 5 5
12 12 12 11 10 10 9 10 9 8 9 9 7 4 4 4 5 5 5 6 4 4 5 5 4 4 4 2 2 2 1 1 1 2 3 2 4 4 4 4 6 5 7 8 6 8 7 6 7 7 6 6 5 8 8 9 6 10 4 7 4 3 4 8 11 5 7 7 6 7 5 6 5 4 4 6 6 5 5 4 5 5 5 5 5
12 12 11 10 8 9 9 9 8 9 8 9 9 8 9 8 7 7 6 6 6 7 5 3 3 2 1 2 1 2 2 1 1 1 2 3 2 2 2 3 4 5 5 6 7 8 8 9 10 8 8 9 8 4 7 8 8 11 8 5 2 2 7 4 1 5 3 5 7 6 6 6 7 7 7 7 5 7 6 5 5 5 5 5 5
12 10 9 10 10 10 11 11 10 10 10 9 8 8 8 8 8 8 8 7 8 8 7 4 2 0 1 1 0 1 2 1 1 1 2 2 2 2 2 2 3 4 4 6 6 5 6 7 7 8 9 8 8 5 6 8 7 7 6 4 6 7 5 4 3 6 1 4 4 5 7 7 7 8 7 7 8 7 6 7 6 7 6 6 6
9 7 8 10 11 10 10 10 9 9 10 10 10 8 9 8 8 7 6 6 5 4 4 5 3 3 1 0 0 1 0 1 0 1 1 1 2 2 1 2 3 4 4 4 5 6 6 7 6 7 8 8 5 8 9 8 5 8 8 8 2 0 4 7 7 2 2 2 4 6 6 5 6 6 8 8 7 7 7 6 7 7 7 6 6
6 7 9 9 11 11 11 11 10 10 10 10 11 9 8 8 8 7 7 7 5 4 5 5 6 5 1 1 0 1 1 0 1 0 1 1 2 3 2 2 2 3 4 5 6 6 5 4 5 7 7 7 8 9 8 6 10 9 8 10 8 2 1 1 2 9 5 3 4 3 3 6 5 7 8 8 9 9 8 7 7 7 7 7 7
9 10 9 9 9 9 10 11 13 12 12 12 11 11 9 8 8 7 8 6 5 5 4 6 7 7 7 7 2 1 1 1 0 1 1 1 1 3 3 3 3 3 3 4 4 5 6 6 6 6 7 7 7 7 6 8 8 9 5 8 7 7 5 3 1 1 5 5 6 6 6 1 3 7 8 9 8 8 9 9 8 8 7 7 8
8 8 9 9 10 10 11 13 13 10 10 12 12 12 11 10 10 9 9 8 7 7 7 8 7 6 7 7 7 7 5 2 2 1 1 1 1 1 2 3 4 4 2 4 4 4 4 5 6 7 7 9 7 7 9 7 7 7 7 5 8 6 5 5 4 3 3 3 8 6 7 9 8 10 10 9 11 9 8 8 8 8 8 8 8
10 11 11 11 11 11 11 13 11 10 11 11 11 11 10 10 10 10 10 10 9 8 9 9 8 9 8 7 7 6 6 6 6 4 3 2 2 1 3 4 3 3 3 3 4 4 5 5 5 5 6 8 8 8 8 7 7 7 7 7 8 8 11 10 10 7 8 6 3 5 3 8 11 9 6 11 9 9 8 7 9 9 10 9 8
Wind_Direction
194 164 173 171 165 167 166 167 164 164 162 162 161 160 156 154 154 152 152 148 147 146 141 140 140 138 135 135 133 133 129 124 124 119 114 108 106 103 103 101 89 109 107 107 106 101 99 94 88 84 79 74 72 75 78 77 78 78 74 72 67 60 50 51 45 45 42 60 71 69 69 68 69 74 72 72 74 73 70 69 68 64 63 68 74
169 165 166 172 168 167 168 167 167 166 165 164 164 162 159 156 155 154 152 152 150 149 145 147 144 142 141 138 135 132 131 130 128 125 120 116 112 107 105 102 103 108 115 110 101 98 91 88 87 85 81 73 69 68 69 71 73 73 72 69 65 59 56 50 48 41 35 37 59 62 64 69 69 69 72 75 75 68 59 63 64 57 61 67 70
149 159 165 170 171 167 165 167 169 168 168 167 167 165 161 156 153 154 153 155 152 151 152 152 148 145 144 139 136 135 134 134 132 129 126 123 118 118 106 94 93 107 110 108 107 101 92 90 89 85 80 75 69 65 64 66 65 65 62 61 60 55 51 51 49 40 37 24 57 38 35 63 72 74 76 77 79 73 60 57 65 63 65 68 67
149 162 164 170 172 167 167 167 169 169 169 168 168 165 160 159 158 156 158 159 157 157 157 154 151 151 147 143 140 139 137 137 135 134 131 126 123 112 106 104 111 113 111 109 102 96 93 89 87 85 82 79 74 69 66 64 64 63 60 56 50 46 39 37 41 36 32 10 356 7 358 34 67 77 82 83 81 80 74 63 56 65 64 66 65
152 159 163 167 170 168 170 166 169 168 169 170 168 166 162 161 159 162 161 161 162 162 160 158 156 154 151 149 146 146 147 142 143 139 135 131 124 115 109 115 118 113 108 112 102 96 91 89 87 84 82 81 77 73 68 64 62 59 59 55 51 42 28 14 20 31 23 330 301 44 280 54 83 77 84 87 84 79 80 78 73 62 53 60 65
152 158 163 167 169 171 170 167 168 169 169 170 168 168 166 163 161 162 164 165 165 164 165 161 160 157 157 155 154 151 150 148 146 143 135 133 127 120 118 120 121 116 113 108 106 104 94 90 85 82 83 82 80 78 73 68 63 59 55 50 46 38 23 5 8 4 351 334 326 160 164 193 93 90 88 91 90 82 76 74 74 74 65 61 55
150 158 161 168 170 174 170 168 167 173 168 171 170 168 167 167 164 164 168 168 167 169 167 166 166 165 165 162 159 158 156 155 149 143 138 135 129 125 122 120 116 115 116 116 109 98 92 89 86 80 81 80 79 77 74 73 69 63 57 51 40 31 17 6 4 347 346 358 41 71 82 84 93 97 97 86 85 87 83 77 77 75 70 63 54
144 157 165 167 173 178 172 170 167 172 171 171 170 169 169 169 166 170 171 172 171 171 172 172 171 171 170 167 164 162 158 152 147 144 139 133 131 125 123 118 120 121 117 108 104 95 92 89 84 81 76 77 74 72 71 70 68 66 61 52 45 30 14 8 360 345 347 25 64 96 102 89 72 70 94 96 90 86 84 82 79 74 71 63 42
153 160 164 168 174 178 177 173 169 174 174 172 170 170 171 172 171 172 175 178 175 176 176 176 175 175 174 172 167 165 158 152 152 147 137 136 132 128 121 119 122 115 112 108 96 91 86 84 85 79 76 75 71 68 66 64 65 64 63 58 48 37 18 10 352 353 0 42 63 90 101 98 97 90 92 95 89 83 79 73 69 74 71 64 58
156 161 167 165 174 179 179 176 174 176 176 173 171 171 174 174 174 175 178 181 179 181 180 180 177 178 176 175 170 166 160 155 156 147 137 135 134 129 124 125 123 124 118 109 97 89 85 86 84 82 77 73 72 68 66 62 59 59 60 59 52 40 23 6 11 11 27 49 67 89 100 106 106 105 97 90 88 84 77 79 84 85 82 72 68
157 162 165 167 171 177 181 179 176 178 178 175 174 174 176 176 176 178 180 183 182 184 184 184 181 180 179 176 171 168 160 161 156 146 142 141 138 132 132 128 128 122 120 121 113 106 102 93 93 88 69 69 73 69 63 59 57 56 56 57 54 41 22 22 42 35 40 46 58 79 99 95 91 87 100 95 89 85 77 78 83 84 82 78 70
153 161 167 162 169 175 182 181 178 180 178 176 176 178 179 177 179 181 182 184 185 187 186 186 184 182 182 178 173 169 162 164 154 151 147 135 137 140 127 120 114 111 93 94 127 125 123 113 93 87 79 69 74 68 65 61 59 59 58 56 51 36 24 36 47 40 46 52 61 51 42 59 100 107 104 102 95 89 87 83 79 81 81 79 77
152 161 167 158 168 177 180 182 180 182 179 178 181 181 184 181 181 184 184 183 187 189 189 186 186 185 183 182 176 168 169 165 158 161 158 151 139 139 137 133 125 121 116 117 95 152 135 125 96 84 87 78 72 74 72 68 65 60 58 55 42 31 22 41 47 42 46 54 63 50 46 37 96 108 103 97 97 93 87 85 80 79 77 74 72
170 150 163 161 168 177 178 182 182 184 181 178 182 185 189 187 186 187 185 184 189 190 191 189 187 186 187 184 178 173 173 168 161 155 143 147 144 145 149 145 144 138 135 123 136 97 200 154 144 116 97 85 79 78 81 76 68 62 55 48 35 26 21 30 43 43 47 45 53 50 35 19 42 108 103 101 93 89 88 85 84 80 75 74 69
167 145 158 161 166 177 178 180 181 185 184 180 182 185 189 188 189 188 189 186 191 190 191 190 183 188 184 184 178 176 177 175 161 153 150 152 154 151 148 157 163 166 156 162 135 200 191 130 123 117 105 89 85 83 77 73 69 63 56 46 34 27 24 28 34 49 51 56 47 49 32 6 77 85 103 104 96 94 85 81 81 68 69 75 74
155 146 143 157 164 171 180 181 179 183 184 183 182 185 188 188 189 193 193 188 193 194 193 191 181 186 179 183 179 182 179 164 165 156 157 159 161 161 164 172 178 173 191 180 172 182 157 149 120 118 111 109 107 93 84 75 68 61 54 47 34 32 38 59 54 49 53 62 52 45 25 10 47 99 102 100 93 84 80 83 73 74 71 65 58
144 144 142 155 161 167 177 183 183 181 183 183 184 184 188 189 189 194 198 191 191 195 194 190 184 183 177 185 176 181 182 174 173 163 163 165 166 171 171 180 188 191 180 176 175 173 162 145 119 125 125 128 120 106 89 79 72 63 59 46 35 28 39 51 55 45 55 59 61 40 23 6 56 76 87 92 93 90 86 61 80 79 75 65 65
145 147 153 155 160 169 175 179 182 183 183 183 185 186 187 188 189 192 195 193 190 193 193 185 178 179 175 183 179 179 179 176 173 164 169 168 170 158 155 162 170 174 169 176 176 163 150 122 131 136 138 138 126 110 95 88 82 77 66 47 29 25 42 49 47 60 66 56 46 38 21 13 67 74 80 82 78 82 83 79 70 76 76 80 58
161 148 153 156 167 167 174 179 184 185 185 183 184 189 188 190 187 189 190 191 188 190 185 182 173 177 175 183 181 178 177 173 169 171 168 166 137 143 153 161 167 176 178 176 169 156 154 130 141 146 144 139 132 116 104 93 92 88 68 46 33 35 37 42 55 66 67 58 42 31 3 33 80 79 79 80 83 87 83 84 83 79 84 62 63
183 168 155 167 166 171 174 181 185 189 188 187 188 187 192 190 189 186 187 188 186 183 180 180 174 176 181 182 180 177 171 168 172 174 167 155 145 137 136 138 167 181 178 172 166 161 163 143 152 154 149 145 130 114 109 103 97 87 67 49 44 50 44 49 67 70 68 61 52 26 5 31 101 98 90 85 84 87 92 101 94 75 64 85 86
209 207 179 171 174 176 180 180 188 189 189 188 191 191 192 190 188 186 185 184 182 178 178 177 177 179 183 183 167 166 172 161 172 164 159 152 149 144 139 137 141 170 161 169 172 163 167 156 167 160 150 134 111 100 98 99 89 78 57 44 43 49 54 67 74 76 67 59 48 18 22 50 84 95 90 92 91 90 94 90 97 99 98 98 97
205 215 216 192 176 186 185 185 185 190 188 188 192 193 190 190 187 185 185 183 181 176 175 176 180 178 177 170 166 159 161 162 162 156 158 157 154 151 147 146 137 118 147 168 174 172 165 166 172 166 147 124 111 90 60 76 77 68 44 43 48 55 53 75 85 81 76 57 44 19 34 66 74 94 91 95 96 99 102 109 110 118 115 101 90
233 226 227 209 196 181 183 186 188 186 188 190 191 187 184 186 189 184 184 181 179 177 174 175 177 175 171 170 166 163 162 163 162 164 162 163 162 159 154 151 146 132 142 166 171 172 167 172 174 167 141 128 116 139 161 97 88 43 40 34 51 52 65 81 95 94 89 79 28 26 37 48 89 99 112 114 106 115 121 103 100 116 114 111 119
216 208 208 209 202 193 189 187 184 184 186 191 188 183 181 181 188 186 181 181 179 180 177 176 177 174 173 170 169 166 164 163 169 162 153 154 163 162 159 154 147 139 149 154 160 167 168 174 178 166 132 125 144 182 142 109 111 54 16 13 69 73 83 91 99 107 95 69 36 33 32 36 59 142 126 147 125 124 128 130 134 119 101 87 98
209 205 206 210 206 203 194 189 184 184 187 189 187 186 179 178 187 186 183 180 182 183 182 180 180 176 174 173 172 165 166 164 161 159 158 154 154 158 154 150 144 147 145 146 142 149 142 144 132 120 144 150 156 187 131 142 183 130 257 225 128 93 87 87 98 98 100 87 51 43 31 28 32 7 169 155 126 143 146 146 147 120 106 120 109
190 186 207 206 207 204 200 194 184 187 188 187 190 183 174 184 186 185 182 185 185 186 185 183 182 181 177 176 170 169 169 168 166 165 163 161 159 160 160 151 148 155 146 146 142 134 129 126 133 143 173 177 175 191 185 172 178 207 205 189 113 108 109 97 103 109 116 103 62 53 34 19 28 347 216 162 145 170 151 143 130 117 119 122 136
193 208 199 204 202 203 202 194 191 187 191 187 186 177 185 185 184 183 183 189 185 184 189 188 187 179 179 177 173 178 173 170 172 170 168 165 165 164 162 161 159 159 160 149 152 145 140 143 147 161 182 208 197 189 187 177 156 165 167 139 143 132 121 116 119 132 140 116 88 63 40 20 8 4 250 163 170 169 162 140 126 145 152 134 130
181 204 202 198 194 203 200 193 199 189 193 188 186 187 184 179 183 181 188 186 183 189 190 193 182 181 182 182 180 176 172 170 174 172 171 164 168 167 162 163 160 165 164 157 152 151 149 150 155 169 190 211 194 170 143 146 162 150 132 140 137 135 139 139 130 144 143 131 105 70 53 33 17 8 330 178 183 189 168 183 196 158 159 163 136
199 207 202 194 202 199 192 195 198 200 193 189 191 191 185 179 178 183 190 184 188 191 191 186 186 183 185 183 180 181 178 172 174 176 156 171 164 166 166 167 163 167 161 171 160 160 159 160 166 181 191 195 190 162 140 142 145 147 145 147 149 146 147 142 130 131 138 140 125 86 69 44 32 34 42 231 195 199 189 179 192 180 172 156 149
210 203 189 205 199 194 192 196 196 197 194 189 198 190 192 187 185 186 187 182 190 187 185 188 191 181 186 186 188 182 181 175 174 168 166 168 167 167 168 170 170 169 169 174 177 162 164 165 170 181 182 186 179 177 149 154 156 163 158 159 160 159 161 156 154 133 146 139 135 99 73 51 40 56 63 58 237 197 204 187 188 149 179 187 168
198 199 201 200 194 184 197 198 197 193 187 194 196 197 189 199 191 185 183 188 183 176 184 186 187 190 188 184 185 184 176 172 171 171 173 163 167 169 177 168 170 181 178 172 170 172 165 173 177 179 180 178 180 171 157 157 171 176 180 160 175 154 163 164 155 149 137 146 145 134 83 67 61 45 55 74 68 72 208 224 185 169 177 197 187
190 212 204 189 172 192 195 195 194 188 186 198 192 196 193 200 194 181 186 187 177 181 182 183 189 191 187 184 183 181 174 171 166 169 171 166 168 173 171 175 186 178 184 174 170 173 170 172 171 173 171 165 168 169 164 150 168 182 177 169 168 158 164 167 151 147 142 152 153 149 125 93 72 64 52 63 76 74 62 37 184 171 185 208 207
310 301 209 163 190 195 188 195 190 182 188 192 192 199 186 184 189 196 180 171 181 179 179 184 186 186 183 183 182 178 175 164 169 167 168 168 166 170 177 187 182 176 184 178 164 163 160 160 170 160 156 155 156 175 160 152 156 188 176 180 162 164 171 158 161 149 153 161 164 157 147 127 93 69 64 49 51 77 83 69 83 130 187 221 224
332 294 146 194 204 180 190 177 179 179 190 187 176 180 186 174 174 183 174 169 177 179 181 177 176 179 178 180 176 173 172 163 159 165 164 167 170 174 178 187 183 179 176 167 171 168 167 162 169 159 169 165 174 176 162 166 187 177 185 188 167 177 169 162 174 175 168 161 156 156 161 139 121 94 65 47 44 51 81 85 83 80 60 29 258
7 1 328 322 17 115 145 164 172 173 169 175 172 179 175 160 153 164 173 174 174 179 174 163 164 170 168 171 167 166 168 160 162 160 171 169 171 176 182 186 172 170 171 178 166 168 160 171 161 168 169 173 177 175 170 170 168 181 196 180 186 190 160 171 169 171 173 189 130 168 167 153 143 109 81 67 42 36 47 66 71 68 56 33 7
14 0 358 32 63 67 80 111 123 139 170 167 162 159 158 149 139 148 160 159 153 166 166 161 154 146 150 159 163 160 159 158 160 161 166 175 175 180 185 167 169 162 169 167 163 170 172 167 180 162 166 189 172 182 166 161 168 178 195 177 196 185 163 155 170 176 202 137 143 144 158 159 160 141 116 82 66 39 40 43 54 54 47 37 24
16 14 10 13 32 22 36 73 102 129 143 121 112 122 127 128 131 129 134 132 137 140 142 128 120 123 133 145 154 157 160 154 160 166 163 172 174 178 176 171 162 164 165 173 175 171 164 169 179 186 172 174 181 172 169 162 166 180 180 172 196 172 168 180 180 189 152 155 166 146 111 150 177 142 134 123 105 75 57 53 49 42 30 31 33
20 19 19 27 27 29 35 37 36 38 61 83 85 92 94 92 90 89 88 92 101 112 113 111 110 123 123 137 149 152 155 149 153 159 162 169 171 175 172 168 162 161 165 170 184 165 168 165 179 195 181 161 181 175 178 165 157 158 163 177 192 174 194 195 195 183 163 178 195 175 171 163 148 147 153 150 152 138 109 91 79 53 30 18 27
22 20 25 25 27 20 22 26 28 30 39 59 63 67 75 75 72 77 75 73 64 62 80 76 95 102 112 136 142 145 152 149 145 152 157 162 167 171 173 171 164 165 165 172 172 172 173 182 178 190 197 194 180 186 173 162 160 159 163 183 181 189 208 205 181 176 187 187 185 194 159 175 160 146 158 163 165 159 152 136 111 92 38 354 353
27 25 27 29 28 26 24 21 15 23 39 36 38 44 47 49 60 56 63 55 65 68 48 89 90 87 106 124 139 148 153 152 146 153 162 167 170 176 178 171 170 163 169 174 184 181 187 187 197 181 186 207 212 172 146 132 92 98 134 193 232 218 171 194 184 192 194 188 191 175 182 187 172 170 162 169 168 172 172 174 168 177 187 252 295
28 26 32 29 30 29 31 24 14 19 24 31 31 43 49 33 38 49 71 38 67 63 63 61 74 108 115 125 144 153 164 162 160 155 173 174 182 173 175 178 170 174 181 191 187 191 191 186 182 184 175 180 209 181 168 136 128 94 7 351 327 319 288 241 216 226 219 212 205 188 185 173 190 182 180 165 171 176 180 181 183 182 190 204 231
20 27 33 33 32 30 32 25 19 22 22 21 32 38 29 82 97 52 83 56 46 63 59 34 73 67 87 114 133 151 162 176 177 169 170 176 179 178 182 184 176 189 195 190 187 188 182 181 162 187 206 182 195 180 180 128 188 181 156 242 318 312 290 305 272 253 239 248 217 198 190 189 193 195 186 174 180 180 184 181 178 182 189 195 208
25 28 26 35 33 32 26 28 26 27 19 16 29 41 39 38 61 49 88 80 68 93 86 36 38 65 43 54 105 122 146 183 186 178 178 190 190 184 196 184 187 181 178 191 188 194 192 188 181 188 199 229 190 186 186 192 166 129 128 98 248 240 304 289 267 242 235 224 206 207 198 194 199 196 193 189 199 201 197 186 181 187 195 197 206
27 26 24 27 30 29 26 25 25 28 26 23 29 17 73 69 49 56 51 76 85 48 57 40 47 50 40 40 52 85 120 178 205 203 210 206 201 202 193 182 193 186 187 188 192 202 194 195 195 203 172 192 206 212 209 195 143 141 188 202 209 151 288 245 221 239 201 213 195 211 198 207 199 209 197 203 209 211 211 200 198 193 198 199 205
29 26 22 22 26 25 23 25 25 24 23 25 30 34 25 27 24 22 26 15 8 19 21 7 13 49 76 85 105 109 123 159 196 225 229 234 228 227 191 201 196 199 193 196 197 202 197 199 195 192 191 196 214 214 222 222 211 203 154 104 45 257 221 245 127 279 188 207 224 207 207 202 198 199 200 213 204 205 201 207 207 199 198 201 204
31 24 20 22 23 24 23 22 23 21 19 20 27 44 54 55 45 39 28 20 17 6 360 312 304 295 219 280 349 109 122 115 192 214 229 227 243 237 206 181 211 207 205 211 208 203 210 205 202 197 205 217 202 192 222 238 236 245 238 225 147 180 185 231 132 267 327 246 232 215 213 208 200 200 205 207 206 209 204 206 202 203 201 202 203
23 17 29 26 24 26 27 29 26 21 15 19 23 31 44 53 66 73 73 63 49 3 333 344 304 288 344 340 281 332 61 152 320 304 259 245 246 254 225 195 200 208 217 219 222 216 214 211 204 206 213 211 185 208 213 217 239 261 253 257 302 144 156 128 212 64 309 301 227 224 232 222 211 204 208 212 206 203 213 207 204 202 205 204 204
17 27 35 35 31 26 29 30 30 27 20 15 24 27 42 41 46 51 57 51 51 25 6 3 17 351 9 317 305 296 311 188 182 322 328 288 271 275 253 228 202 211 197 214 222 224 222 229 216 218 217 212 206 214 216 207 201 227 227 246 256 274 288 20 147 182 173 185 261 268 280 230 225 226 216 210 205 206 204 208 205 205 205 208 205
27 27 30 34 37 35 35 36 37 31 22 19 18 21 33 40 46 43 43 30 33 25 10 30 23 13 25 351 0 321 307 324 342 279 330 292 272 260 278 279 256 238 193 217 231 229 223 222 220 220 218 225 213 222 217 220 218 229 216 247 255 250 259 274 6 114 180 207 253 197 223 250 251 248 234 217 213 206 201 200 201 202 202 209 208
25 30 31 32 33 35 35 38 36 34 29 25 19 22 25 29 37 36 39 25 21 18 32 24 19 15 23 13 3 355 330 313 300 314 308 303 270 254 256 255 255 256 221 218 231 240 238 230 226 223 222 226 220 216 222 226 220 229 221 222 224 240 265 273 266 248 293 201 230 202 201 187 209 237 218 217 217 209 201 197 199 201 205 207 207
23 26 27 28 28 30 30 38 33 33 32 32 26 24 25 29 34 32 33 27 19 24 23 18 14 17 14 3 4 359 18 348 336 322 317 306 282 267 251 259 263 266 262 249 232 230 238 230 232 230 229 229 228 227 231 234 226 227 230 222 227 211 219 220 221 216 212 223 240 244 218 206 209 234 235 216 210 209 201 197 200 206 205 205 205